sat.trackr.live / text

‹ back to catalog

STARLINK-3898

NORAD 52458 · 2022-049H

PAYLOAD ACTIVE UNKNOWN

§ Identity

Operator
Country
US
Launch date
2022-05-06
Launch site
AFETR
Launch vehicle
Mass (kg)
RCS (m²)

Purposes: comms

External: N2YO · Heavens-Above · Gunter

§ Orbital elements

Epoch: 2026-09-20T04:00:03.000096Z

Period
93.85 min
Inclination
53.1605°
Eccentricity
0.0001379
Mean motion
15.34421265 rev/d
Perigee alt
461.7 km
Apogee alt
463.6 km
Semi-major
6,840.8 km
B*
-7.3241e-4
RAAN
271.0212°
Arg perigee
81.2835°
Mean anomaly
351.5332°
Rev number
576

§ Raw data

STARLINK-38981 52458U 22049H   26263.16670139 -.00025057  00000+0 -73241-3 0  99932 52458  53.1605 271.0212 0001379  81.2835 351.5332 15.34421265  5761

JSON: /api/v1/satellites/52458 · /tle

For live sub-satellite position, see the globe view (requires WebGL).

§ Visibility from observer

Set your observer location to see the next 7 days of passes ≥ 10°. The values pass through the URL so the page stays shareable.

No JS? Fill the form by hand. The geolocation button needs JavaScript.